Regional Weather Roundup
Issued by NWS New Orleans/Baton Rouge, LA

Home | Current Version | Previous Version | Graphics & Text | Print | Product List | Glossary On
Versions: 1 2 3 4 5 6 7 8 9 10 11 12 13 14 15 16 17 18 19 20 21 22 23 24 25 26 27 28 29 30 31 32 33 34 35 36 37 38 39 40 41 42 43 44 45 46 47 48 49 50
714
ASUS44 KLIX 230101
RWRLIX
NEW ORLEANS REGIONAL WEATHER ROUNDUP
NATIONAL WEATHER SERVICE NEW ORLEANS LA
700 PM CST SAT NOV 22 2014

NOTE: "FAIR" INDICATES FEW OR NO CLOUDS BELOW 12,000 FEET WITH NO
      SIGNIFICANT WEATHER AND/OR OBSTRUCTIONS TO VISIBILITY.
      SKY/WX - SKY CONDITION AND SIGNIFICANT WEATHER.
      TMP - AIR TEMPERATURE.     DP    - DEWPOINT TEMPERATURE.
      RH  - RELATIVE HUMIDITY.   PRES  - PRESSURE.
      HI  - HEAT INDEX.          WCI   - WIND CHILL INDEX.

*  THESE STATIONS ARE NOT NWS OR FAA STATIONS AND ARE NOT UNDER
   NWS QUALITY CONTROL.

LAZ038-040-048-061>063-065>067-069-230200-
SOUTHEAST LOUISIANA

CITY           SKY/WX    TMP DP  RH WIND       PRES   REMARKS
N.O. AUDUBON     N/A     64  61  91 MISG        N/A
N.O. INTL ARPT CLOUDY    64  59  83 E13       30.01S
N.O. LAKEFRONT CLOUDY    62  58  86 E16       30.03R
N.O. DOWNTOWN* CLOUDY    61  55  82 NE5       30.03R
SLIDELL        CLOUDY    65  60  84 E7        30.02F
BATON ROUGE    CLOUDY    64  58  80 E13       29.99F
BOOTHVILLE     LGT RAIN  66  65  96 E9        30.00F
BELLE CHASSE   CLOUDY    65  60  84 E12       30.01R
BOGALUSA*        N/A     64  57  79 NE3       30.05S
NEW ROADS*     NOT AVBL
GONZALES*      NOT AVBL
HAMMOND*       NOT AVBL
HOUMA*         CLOUDY    64  62  93 NE10      29.98F
PORT FOURCHON* NOT AVBL

$$

MSZ070-080>082-230200-
SOUTHERN MISSISSIPPI

CITY           SKY/WX    TMP DP  RH WIND       PRES   REMARKS
MCCOMB         CLOUDY    61  53  75 E5        30.03F
GULFPORT       CLOUDY    64  60  87 E15       30.04F
BILOXI         CLOUDY    63  60  92 E9G21     30.05S
PASCAGOULA     CLOUDY    62  59  90 E7        30.06F
STENNIS ARPT*  CLOUDY    64  57  77 E12G21    30.05S

$$

COASTAL OBSERVATIONS
LAKE AND NEARSHORE STATIONS

STATION/POSITION TIME  TEMP    WIND        PRES    WAVE
                       AIR SEA DIR/SP/G            HT/PER
                 (UTC) (F)     (DEG/KT/KT) (MB)    (FT/S)
PASCAGOULA       0000   61      60/ 13/ 17 1017.3
WAVELAND YACHT   0000   62     100/ 18/ 23 1015.7
GRAND ISLE       0000   66 62   60/  8/ 10 1015.9
SOUTHWEST PASS   0000   69 72              1016.0
NEW CANAL        0000   63 55   80/  5/ 11 1016.7
SHELL BEACH      0000   62 53  100/ 14/ 16 1016.0

OFFSHORE STATIONS

STATION/POSITION TIME  TEMP    WIND        PRES    WAVE
                       AIR SEA DIR/SP/G            HT/PER
                 (UTC) (F)     (DEG/KT/KT) (MB)    (FT/S)

$$




USA.gov is the U.S. government's official web portal to all federal, state and local government web resources and services.